Weather History for KBQK - May, 2013

Change the Weather History Date:

Sunday, May 19, 2013

  Actual Average (KSSI) Record (KSSI)
Temperature  
Mean Temperature 79 °F 75 °F  
Max Temperature 87 °F 83 °F 92 °F (1965)
Min Temperature 71 °F 68 °F 53 °F (2002)
Cooling Degree Days 14 10  
Month to date cooling degree days 155  
Year to date cooling degree days 298  
Growing Degree Days 29 (Base 50)    
Moisture  
Dew Point 73 °F    
Average Humidity 81    
Maximum Humidity 100    
Minimum Humidity 55    
Precipitation  
Precipitation 0.00 in 0.05 in 1.72 in (1969)
Month to date precipitation 0.96  
Year to date precipitation 14.02  
Sea Level Pressure  
Sea Level Pressure 30.09 in    
Wind  
Wind Speed 4 mph (SSE)    
Max Wind Speed 15 mph    
Max Gust Speed 22 mph    
Visibility 10 miles    
Events Thunderstorm    
T = Trace of Precipitation, MM = Missing Value Source: NWS Daily Summary

Daily Weather History Graph

Daily Weather History Graph

Search for Another Location

Airport or City:

Trip Planner

Search our weather history database for the weather conditions in past years. The results will help you decide how hot, cold, wet, or windy it might be!

Date:

Astronomy

May. 19, 2013 Rise Set
Actual Time 6:27 AM EDT 8:17 PM EDT
Civil Twilight 6:00 AM EDT 8:44 PM EDT
Nautical Twilight 5:28 AM EDT 9:16 PM EDT
Astronomical Twilight 4:53 AM EDT 9:51 PM EDT
Moon 2:41 PM EDT (5/19) 2:26 AM EDT (5/19)
Length of Visible Light 14h 43m
Length of Day
13h 50m
Waxing Gibbous, 65% of the Moon is Illuminated
May 19
Waxing Gibbous
May 25
Full
May 31
Last Quarter
Jun 8
New
Jun 16
First Quarter

Hourly Weather History & Observations

Time (EDT) Temp. Heat Index Dew Point Humidity Pressure Visibility Wind Dir Wind Speed Gust Speed Precip Events Conditions
12:15 AM 75.2 °F - 73.4 °F 94% 30.10 in 10.0 mi Calm Calm - N/A   Clear
12:35 AM 75.2 °F - 73.4 °F 94% 30.11 in 10.0 mi Calm Calm - N/A   Clear
12:55 AM 73.4 °F - 71.6 °F 94% 30.10 in 10.0 mi Calm Calm - N/A   Scattered Clouds
1:15 AM 75.2 °F - 73.4 °F 94% 30.10 in 10.0 mi Calm Calm - N/A   Scattered Clouds
1:35 AM 75.2 °F - 73.4 °F 94% 30.10 in 10.0 mi Calm Calm - N/A   Scattered Clouds
1:55 AM 71.6 °F - 69.8 °F 94% 30.09 in 4.0 mi Calm Calm - N/A   Mostly Cloudy
2:15 AM 71.6 °F - 71.6 °F 100% 30.08 in 7.0 mi Calm Calm - N/A   Mostly Cloudy
2:35 AM 73.4 °F - 73.4 °F 100% 30.08 in 7.0 mi Calm Calm - N/A   Mostly Cloudy
2:55 AM 75.2 °F - 73.4 °F 94% 30.08 in 7.0 mi South 3.5 mph - N/A   Overcast
3:15 AM 77.0 °F - 73.4 °F 89% 30.08 in 10.0 mi Calm Calm - N/A   Overcast
3:35 AM 77.0 °F - 73.4 °F 89% 30.08 in 10.0 mi South 3.5 mph - N/A   Mostly Cloudy
3:55 AM 77.0 °F - 73.4 °F 89% 30.07 in 10.0 mi SSE 4.6 mph - N/A   Mostly Cloudy
4:15 AM 77.0 °F - 73.4 °F 89% 30.07 in 10.0 mi SE 5.8 mph - N/A   Mostly Cloudy
4:35 AM 77.0 °F - 73.4 °F 89% 30.07 in 10.0 mi SSE 5.8 mph - N/A   Mostly Cloudy
4:55 AM 75.2 °F - 73.4 °F 94% 30.07 in 10.0 mi South 4.6 mph - N/A   Scattered Clouds
5:15 AM 75.2 °F - 71.6 °F 89% 30.07 in 10.0 mi South 3.5 mph - N/A   Mostly Cloudy
5:35 AM 75.2 °F - 71.6 °F 89% 30.08 in 10.0 mi South 3.5 mph - N/A   Scattered Clouds
5:55 AM 75.2 °F - 71.6 °F 89% 30.08 in 10.0 mi South 3.5 mph - N/A   Clear
6:15 AM 75.2 °F - 71.6 °F 89% 30.08 in 10.0 mi Calm Calm - N/A   Scattered Clouds
6:35 AM 75.2 °F - 71.6 °F 89% 30.09 in 10.0 mi Calm Calm - N/A   Scattered Clouds
6:55 AM 73.4 °F - 71.6 °F 94% 30.10 in 10.0 mi Calm Calm - N/A   Mostly Cloudy
7:15 AM 73.4 °F - 71.6 °F 94% 30.10 in 10.0 mi Calm Calm - N/A   Scattered Clouds
7:35 AM 77.0 °F - 73.4 °F 89% 30.10 in 10.0 mi Calm Calm - N/A   Clear
7:55 AM 77.0 °F - 73.4 °F 89% 30.10 in 10.0 mi Calm Calm - N/A   Clear
8:15 AM 78.8 °F - 73.4 °F 83% 30.10 in 10.0 mi SSE 4.6 mph - N/A   Clear
8:35 AM 78.8 °F - 73.4 °F 83% 30.11 in 10.0 mi SSE 5.8 mph - N/A   Clear
8:55 AM 80.6 °F 84.6 °F 71.6 °F 74% 30.11 in 10.0 mi SSE 6.9 mph - N/A   Clear
9:15 AM 80.6 °F 84.6 °F 71.6 °F 74% 30.11 in 10.0 mi SSE 6.9 mph - N/A   Clear
9:35 AM 82.4 °F 88.2 °F 73.4 °F 74% 30.12 in 10.0 mi SSE 8.1 mph - N/A   Scattered Clouds
9:55 AM 82.4 °F 88.2 °F 73.4 °F 74% 30.11 in 10.0 mi SSE 9.2 mph - N/A   Mostly Cloudy
10:15 AM 82.4 °F 88.2 °F 73.4 °F 74% 30.12 in 10.0 mi SSE 5.8 mph - N/A   Mostly Cloudy
10:35 AM 84.2 °F 90.9 °F 73.4 °F 70% 30.12 in 10.0 mi South 5.8 mph - N/A   Mostly Cloudy
10:55 AM 82.4 °F 88.2 °F 73.4 °F 74% 30.12 in 10.0 mi SSE 5.8 mph - N/A   Mostly Cloudy
11:15 AM 84.2 °F 90.9 °F 73.4 °F 70% 30.12 in 10.0 mi ESE 8.1 mph - N/A   Mostly Cloudy
11:35 AM 84.2 °F 90.9 °F 73.4 °F 70% 30.12 in 10.0 mi SSE 8.1 mph - N/A   Scattered Clouds
11:55 AM 84.2 °F 90.9 °F 73.4 °F 70% 30.12 in 10.0 mi SE 5.8 mph - N/A   Clear
12:15 PM 86.0 °F 93.4 °F 73.4 °F 66% 30.11 in 10.0 mi SSE 5.8 mph - N/A   Clear
12:55 PM 86.0 °F 93.4 °F 73.4 °F 66% 30.11 in 10.0 mi ESE 9.2 mph 17.3 mph N/A   Clear
1:15 PM 86.0 °F 91.8 °F 71.6 °F 62% 30.10 in 10.0 mi SE 12.7 mph 17.3 mph N/A   Clear
1:35 PM 86.0 °F 91.8 °F 71.6 °F 62% 30.08 in 10.0 mi ESE 10.4 mph 16.1 mph N/A   Clear
1:55 PM 86.0 °F 91.8 °F 71.6 °F 62% 30.08 in 10.0 mi SSE 10.4 mph - N/A   Clear
2:15 PM 86.0 °F 91.8 °F 71.6 °F 62% 30.07 in 10.0 mi SSE 10.4 mph - N/A   Clear
2:35 PM 86.0 °F 91.8 °F 71.6 °F 62% 30.07 in 10.0 mi SSE 9.2 mph - N/A Thunderstorm Clear
2:55 PM 86.0 °F 90.4 °F 69.8 °F 58% 30.06 in 10.0 mi ESE 12.7 mph 18.4 mph N/A   Clear
3:15 PM 87.8 °F 92.6 °F 69.8 °F 55% 30.06 in 10.0 mi SSE 12.7 mph - N/A Thunderstorm Clear
3:35 PM 86.0 °F 90.4 °F 69.8 °F 58% 30.06 in 10.0 mi SE 12.7 mph 17.3 mph N/A Thunderstorm Clear
3:55 PM 86.0 °F 91.8 °F 71.6 °F 62% 30.06 in 10.0 mi SSE 15.0 mph 21.9 mph N/A   Clear
4:15 PM 82.4 °F 87.2 °F 71.6 °F 70% 30.06 in 10.0 mi South 12.7 mph 18.4 mph N/A Thunderstorm Thunderstorm
4:35 PM 82.4 °F 87.2 °F 71.6 °F 70% 30.06 in 10.0 mi SSE 9.2 mph - N/A   Clear
4:55 PM 80.6 °F 84.6 °F 71.6 °F 74% 30.04 in 10.0 mi SSE 10.4 mph - N/A Thunderstorm Clear
5:15 PM 80.6 °F 84.6 °F 71.6 °F 74% 30.05 in 10.0 mi SSE 9.2 mph - N/A   Clear
5:35 PM 82.4 °F 87.2 °F 71.6 °F 70% 30.05 in 10.0 mi SSE 12.7 mph 17.3 mph N/A Thunderstorm Clear
5:55 PM 80.6 °F 85.4 °F 73.4 °F 79% 30.06 in 10.0 mi SE 8.1 mph - N/A Thunderstorm Clear
6:15 PM 80.6 °F 84.6 °F 71.6 °F 74% 30.06 in 10.0 mi SSE 8.1 mph - N/A   Clear
6:35 PM 80.6 °F 84.6 °F 71.6 °F 74% 30.07 in 10.0 mi SE 6.9 mph - N/A Thunderstorm Scattered Clouds
6:55 PM 80.6 °F 85.4 °F 73.4 °F 79% 30.06 in 10.0 mi SE 6.9 mph - N/A Thunderstorm Mostly Cloudy
7:15 PM 78.8 °F - 73.4 °F 83% 30.06 in 10.0 mi SE 4.6 mph - N/A Thunderstorm Mostly Cloudy
7:35 PM 78.8 °F - 73.4 °F 83% 30.06 in 10.0 mi East 5.8 mph - N/A Thunderstorm Thunderstorm
7:55 PM 77.0 °F - 73.4 °F 89% 30.08 in 10.0 mi Calm Calm - N/A Thunderstorm Thunderstorm
8:15 PM 77.0 °F - 73.4 °F 89% 30.07 in 10.0 mi ESE 4.6 mph - N/A Thunderstorm Overcast
8:35 PM 77.0 °F - 73.4 °F 89% 30.07 in 10.0 mi SE 5.8 mph - N/A   Overcast
8:55 PM 77.0 °F - 73.4 °F 89% 30.08 in 10.0 mi South 6.9 mph - N/A   Scattered Clouds
9:15 PM 77.0 °F - 73.4 °F 89% 30.08 in 10.0 mi SSE 4.6 mph - N/A   Scattered Clouds
9:55 PM 77.0 °F - 73.4 °F 89% 30.10 in 10.0 mi Calm Calm - N/A   Scattered Clouds
10:15 PM 77.0 °F - 75.2 °F 94% 30.10 in 10.0 mi SSE 5.8 mph - N/A   Scattered Clouds
10:35 PM 77.0 °F - 75.2 °F 94% 30.11 in 10.0 mi South 3.5 mph - N/A   Mostly Cloudy
10:55 PM 77.0 °F - 75.2 °F 94% 30.10 in 10.0 mi South 5.8 mph - N/A   Overcast
11:15 PM 77.0 °F - 75.2 °F 94% 30.09 in 10.0 mi SSE 6.9 mph - N/A   Scattered Clouds
11:35 PM 77.0 °F - 75.2 °F 94% 30.09 in 10.0 mi SSE 4.6 mph - N/A   Scattered Clouds
11:55 PM 77.0 °F - 73.4 °F 89% 30.08 in 10.0 mi SSE 5.8 mph - N/A   Scattered Clouds